RA1AMW-13 Saint Petersburg RU current weather conditions

sailwx.info

Wind from 175 at 11 knots gusting 22

Air temperature -0.6° C
Dewpoint -1.7° C

Last reported at 2015-Jan-29 15:50 UTC.
Time now 2015-Jan-29 16:22 UTC

Location: N 60°01' E 030°18'.
View on Google Maps.

See reports from other nearby stations

  
Tides and Currents Weather Stations Pressure Air Temp Water Temp Dewpoint Dewpoint Depression Visibility Wind Speed Wind Dir Waves Ship Positions
date/time (UTC)wind fromknots sea level pressurealtimeterstation pressurevisibilityair tempwater tempwave heightnotes
2015-Jan-29 15:50 175 11 gusting 22 -0.6
2015-Jan-29 15:40 174 9 gusting 18 -0.6
2015-Jan-29 15:30 168 9 gusting 18 -0.6
2015-Jan-29 15:20 154 8 gusting 19 -0.6
2015-Jan-29 15:10 181 11 gusting 20 -0.6
2015-Jan-29 15:00 167 9 gusting 19 -0.6
2015-Jan-29 14:50 167 10 gusting 22 -0.0
2015-Jan-29 14:40 188 11 gusting 19 -0.6
2015-Jan-29 14:30 171 11 gusting 18 -0.6
2015-Jan-29 14:20 183 10 gusting 19 -0.0
2015-Jan-29 14:10 182 12 gusting 18 -0.6
2015-Jan-29 14:00 179 12 gusting 28 -0.0
2015-Jan-29 13:50 187 10 gusting 19 -0.0
2015-Jan-29 13:40 176 9 gusting 19 -0.6
2015-Jan-29 13:30 175 11 gusting 20 -0.6
2015-Jan-29 13:20 194 14 gusting 31 -0.6
2015-Jan-29 13:10 185 8 gusting 31 -0.0
2015-Jan-29 13:00 178 11 gusting 22 -0.6
2015-Jan-29 12:50 193 6 gusting 17 -0.6
2015-Jan-29 12:40 189 11 gusting 23 -0.6
2015-Jan-29 12:30 176 11 gusting 23 -0.6
2015-Jan-29 12:20 201 13 gusting 28 -0.6
2015-Jan-29 12:10 213 12 gusting 16 -0.6
2015-Jan-29 12:00 164 7 gusting 16 -0.6
2015-Jan-29 11:50 160 10 gusting 19 -0.6
2015-Jan-29 11:40 170 9 gusting 18 -1.1
2015-Jan-29 11:30 176 9 gusting 19 -1.1
2015-Jan-29 11:20 166 9 gusting 22 -0.6
2015-Jan-29 11:10 176 11 gusting 22 -1.1
2015-Jan-29 11:00 176 9 gusting 19 -0.6
2015-Jan-29 10:50 163 8 gusting 20 -0.6
2015-Jan-29 10:40 165 11 gusting 18 -0.6
2015-Jan-29 10:30 175 8 gusting 16 -0.6
2015-Jan-29 10:20 174 8 gusting 18 -1.1
2015-Jan-29 10:10 181 10 gusting 14 -0.6
2015-Jan-29 10:00 183 9 gusting 19 -1.1
2015-Jan-29 09:50 178 11 gusting 20 -0.6
2015-Jan-29 09:40 187 8 gusting 19 -1.1
2015-Jan-29 09:30 179 8 gusting 18 -1.1
2015-Jan-29 09:20 172 11 gusting 19 -1.1
2015-Jan-29 09:10 181 14 gusting 19 -1.1
2015-Jan-29 09:00 173 9 gusting 19 -1.1
2015-Jan-29 08:50 168 9 gusting 19 -1.1
2015-Jan-29 08:40 181 10 gusting 19 -1.7
2015-Jan-29 08:30 163 10 gusting 21 -1.1
2015-Jan-29 08:20 175 10 gusting 18 -1.7
2015-Jan-29 08:10 171 7 gusting 23 -1.7
2015-Jan-29 08:00 170 8 gusting 23 -1.7
2015-Jan-29 07:50 181 11 gusting 23 -1.7
2015-Jan-29 07:40 185 6 gusting 18 -1.1
2015-Jan-29 07:30 173 11 gusting 18 -1.7
2015-Jan-29 07:20 179 10 gusting 23 -1.7
2015-Jan-29 07:10 179 9 gusting 18 -1.7
2015-Jan-29 07:00 176 10 gusting 19 -1.7
2015-Jan-29 06:50 183 11 gusting 19 -1.7
2015-Jan-29 05:50 184 8 gusting 15 -1.7
2015-Jan-29 05:40 183 6 gusting 14 -1.7
2015-Jan-29 05:30 201 8 gusting 19 -1.7
2015-Jan-29 05:20 175 10 gusting 21 -1.7
2015-Jan-29 05:10 187 8 gusting 14 -1.7
2015-Jan-29 05:00 194 11 gusting 19 -1.7
2015-Jan-29 04:50 192 10 gusting 21 -1.7
2015-Jan-29 04:40 186 6 gusting 18 -1.7
2015-Jan-29 04:30 202 11 gusting 20 -1.7
2015-Jan-29 04:20 202 12 gusting 30 -1.7
2015-Jan-29 04:10 187 15 gusting 20 -1.7
2015-Jan-29 04:00 189 12 gusting 22 -1.7
2015-Jan-29 03:50 182 7 gusting 19 -1.7
2015-Jan-29 03:40 190 6 gusting 14 -1.7
2015-Jan-29 03:30 175 7 gusting 17 -1.7
2015-Jan-29 03:20 193 7 gusting 16 -1.7
2015-Jan-29 03:10 181 10 gusting 16 -1.7
2015-Jan-29 03:00 170 9 gusting 17 -1.7
2015-Jan-29 02:50 184 9 gusting 18 -1.7
2015-Jan-29 02:40 192 8 gusting 14 -1.7
2015-Jan-29 02:30 179 9 gusting 18 -1.7
2015-Jan-29 02:20 183 8 gusting 17 -1.7
2015-Jan-29 02:10 181 9 gusting 16 -1.7
2015-Jan-29 02:00 186 10 gusting 19 -1.7
2015-Jan-29 01:50 201 12 gusting 20 -1.7
2015-Jan-29 01:40 179 7 gusting 19 -1.7
2015-Jan-29 01:30 189 9 gusting 22 -1.7
2015-Jan-29 01:20 173 9 gusting 20 -1.7
2015-Jan-29 01:10 217 10 gusting 18 -1.7
2015-Jan-29 01:00 198 11 gusting 19 -1.7
2015-Jan-29 00:50 194 10 gusting 19 -1.7
2015-Jan-29 00:40 170 10 gusting 18 -1.7
2015-Jan-29 00:30 174 11 gusting 19 -1.7
2015-Jan-29 00:20 194 9 gusting 17 -1.7
2015-Jan-29 00:10 177 8 gusting 13 -1.7
2015-Jan-29 00:00 184 8 gusting 19 -1.7
2015-Jan-28 23:50 174 9 gusting 15 -1.7
2015-Jan-28 23:40 190 9 gusting 15 -1.7
2015-Jan-28 23:30 187 10 gusting 18 -1.7
2015-Jan-28 23:20 188 10 gusting 17 -1.7
2015-Jan-28 23:10 211 8 gusting 18 -1.7
2015-Jan-28 23:00 190 8 gusting 18 -1.7
2015-Jan-28 22:50 191 9 gusting 18 -1.7
2015-Jan-28 22:40 176 10 gusting 18 -1.7
2015-Jan-28 22:30 174 11 gusting 19 -2.2
2015-Jan-28 22:20 171 8 gusting 17 -1.7
2015-Jan-28 22:10 184 11 gusting 18 -2.2
2015-Jan-28 22:00 169 9 gusting 18 -1.7
2015-Jan-28 21:50 179 10 gusting 20 -2.2
2015-Jan-28 21:40 170 7 gusting 22 -1.7
2015-Jan-28 21:30 192 8 gusting 18 -2.2
2015-Jan-28 21:20 186 11 gusting 21 -1.7
2015-Jan-28 21:10 182 10 gusting 23 -1.7
2015-Jan-28 21:00 179 9 gusting 21 -1.7
2015-Jan-28 20:50 179 11 gusting 22 -2.2
2015-Jan-28 20:40 189 8 gusting 20 -2.2
2015-Jan-28 20:30 196 13 gusting 24 -2.2
2015-Jan-28 20:20 183 12 gusting 20 -1.7
2015-Jan-28 20:10 217 10 gusting 21 -2.2
2015-Jan-28 20:00 196 13 gusting 23 -1.7
2015-Jan-28 19:50 209 14 gusting 26 -1.7
2015-Jan-28 19:40 179 12 gusting 25 -1.7
2015-Jan-28 19:30 201 15 gusting 26 -1.7
2015-Jan-28 19:20 189 13 gusting 23 -1.7
2015-Jan-28 19:10 179 12 gusting 26 -2.2
2015-Jan-28 19:00 172 10 gusting 25 -1.7
2015-Jan-28 18:50 186 9 gusting 20 -1.7
2015-Jan-28 18:40 199 12 gusting 20 -2.2
2015-Jan-28 18:30 195 12 gusting 19 -1.7
2015-Jan-28 18:20 191 13 gusting 23 -1.7
2015-Jan-28 18:10 183 13 gusting 23 -2.2
2015-Jan-28 18:00 204 12 gusting 26 -2.2
2015-Jan-28 17:50 191 13 gusting 26 -1.7
2015-Jan-28 17:40 189 10 gusting 20 -2.2
2015-Jan-28 17:30 197 10 gusting 19 -1.7
2015-Jan-28 17:20 194 12 gusting 21 -1.7
2015-Jan-28 17:10 181 13 gusting 23 -2.2
2015-Jan-28 17:00 197 13 gusting 26 -1.7
2015-Jan-28 16:50 178 13 gusting 24 -2.2
2015-Jan-28 16:40 184 12 gusting 25 -1.7
2015-Jan-28 16:30 207 13 gusting 24 -1.7
2015-Jan-28 16:20 165 8 gusting 19 -1.7
2015-Jan-28 16:10 140 8 gusting 18 -1.7
2015-Jan-28 16:00 192 9 gusting 17 -1.7
2015-Jan-28 15:50 192 8 gusting 17 -1.7
2015-Jan-28 15:40 188 10 gusting 20 -1.7
2015-Jan-28 15:30 208 12 gusting 19 -1.7
2015-Jan-28 15:20 202 7 gusting 18 -1.7
2015-Jan-28 15:10 218 9 gusting 14 -1.7
2015-Jan-28 15:00 195 9 gusting 19 -1.7
2015-Jan-28 14:50 196 9 gusting 18 -1.7
2015-Jan-28 14:40 217 9 gusting 19 -1.1
2015-Jan-28 14:30 194 9 gusting 19 -1.1
2015-Jan-28 14:20 197 6 gusting 18 -1.1
2015-Jan-28 14:10 179 8 gusting 17 -1.7
2015-Jan-28 14:00 193 9 gusting 24 -1.7
2015-Jan-28 13:50 194 7 gusting 18 -1.1
2015-Jan-28 13:40 190 6 gusting 14 -1.1
2015-Jan-28 13:30 208 6 gusting 13 -1.7
2015-Jan-28 13:20 191 7 gusting 17 -1.7
2015-Jan-28 13:10 177 6 gusting 16 -1.7
2015-Jan-28 13:00 204 8 gusting 18 -1.7
2015-Jan-28 12:50 203 7 gusting 16 -1.7
2015-Jan-28 12:40 220 6 gusting 17 -1.1
2015-Jan-28 12:30 199 6 gusting 16 -1.7
2015-Jan-28 12:20 208 5 gusting 14 -1.7
2015-Jan-28 12:10 170 4 gusting 13 -1.7
2015-Jan-28 12:00 193 6 gusting 15 -1.7
2015-Jan-28 11:50 204 7 gusting 17 -1.7
2015-Jan-28 11:40 216 10 gusting 18 -1.7
2015-Jan-28 11:30 204 10 gusting 21 -1.1
2015-Jan-28 11:20 208 6 gusting 14 -1.7
2015-Jan-28 11:10 191 10 gusting 18 -1.7
2015-Jan-28 11:00 191 10 gusting 19 -1.7
2015-Jan-28 10:50 206 8 gusting 18 -1.1
2015-Jan-28 10:40 223 8 gusting 18 -1.7
2015-Jan-28 10:30 185 8 gusting 19 -1.7
2015-Jan-28 10:20 191 7 gusting 18 -1.7
2015-Jan-28 10:10 181 11 gusting 18 -1.7
2015-Jan-28 10:00 203 8 gusting 19 -2.2
2015-Jan-28 09:49 214 9 gusting 19 -1.7
2015-Jan-28 09:39 206 8 gusting 18 -1.7
2015-Jan-28 09:29 195 6 gusting 16 -1.7
2015-Jan-28 09:19 173 6 gusting 16 -1.7
2015-Jan-28 09:09 223 7 gusting 14 -1.7
2015-Jan-28 08:59 217 6 gusting 16 -2.2
2015-Jan-28 08:49 188 10 gusting 19 -2.2
2015-Jan-28 08:39 198 8 gusting 19 -2.2
2015-Jan-28 08:29 219 9 gusting 19 -1.7
2015-Jan-28 08:19 203 8 gusting 23 -1.7
2015-Jan-28 08:09 222 9 gusting 14 -2.2
2015-Jan-28 07:59 213 8 gusting 15 -2.2
2015-Jan-28 07:49 208 8 gusting 19 -2.2
2015-Jan-28 07:39 225 10 gusting 19 -2.2
2015-Jan-28 07:29 198 7 gusting 17 -2.2
2015-Jan-28 07:19 213 9 gusting 19 -2.2
2015-Jan-28 07:09 204 6 gusting 19 -2.2
2015-Jan-28 06:59 212 9 gusting 19 -2.2
2015-Jan-28 06:49 201 7 gusting 14 -2.2
2015-Jan-28 05:39 204 6 gusting 14 -2.2
2015-Jan-28 05:29 195 5 gusting 13 -2.2
2015-Jan-28 05:19 215 6 gusting 14 -2.8
2015-Jan-28 05:09 189 6 gusting 15 -2.8
2015-Jan-28 04:59 203 9 gusting 15 -2.8
2015-Jan-28 04:49 204 7 gusting 14 -3.3
2015-Jan-28 04:39 204 8 gusting 14 -3.3
2015-Jan-28 04:29 191 6 gusting 15 -3.3
2015-Jan-28 04:19 201 6 gusting 13 -3.3
2015-Jan-28 04:09 187 6 gusting 11 -3.3
2015-Jan-28 03:59 177 6 gusting 13 -3.3
2015-Jan-28 03:49 200 8 gusting 13 -3.3
2015-Jan-28 03:39 200 8 gusting 14 -3.3
2015-Jan-28 03:29 191 6 gusting 14 -3.3
2015-Jan-28 03:19 203 6 gusting 13 -3.3
2015-Jan-28 03:09 217 6 gusting 13 -3.3
2015-Jan-28 02:59 194 6 gusting 14 -3.3
2015-Jan-28 02:49 213 8 gusting 15 -3.3
2015-Jan-28 02:39 200 9 gusting 19 -3.3
2015-Jan-28 02:29 186 6 gusting 19 -2.8
2015-Jan-28 02:19 201 7 gusting 17 -3.3
2015-Jan-28 02:09 147 5 gusting 14 -3.3
2015-Jan-28 01:59 196 8 gusting 19 -3.3
2015-Jan-28 01:49 195 8 gusting 17 -3.3
2015-Jan-28 01:39 199 7 gusting 15 -3.3
2015-Jan-28 01:29 203 7 gusting 13 -3.3
2015-Jan-28 01:19 208 6 gusting 15 -3.3
2015-Jan-28 01:09 194 7 gusting 13 -3.3
2015-Jan-28 00:59 202 6 gusting 14 -3.3
2015-Jan-28 00:49 195 6 gusting 14 -3.3
2015-Jan-28 00:39 190 8 gusting 16 -3.3
2015-Jan-28 00:29 205 7 gusting 14 -3.3
2015-Jan-28 00:19 199 7 gusting 16 -3.3
2015-Jan-28 00:09 186 6 gusting 14 -3.3
2015-Jan-27 23:59 196 7 gusting 14 -3.3
2015-Jan-27 23:49 209 7 gusting 13 -3.3
2015-Jan-27 23:39 192 6 gusting 15 -3.3
2015-Jan-27 23:29 197 6 gusting 14 -3.3
2015-Jan-27 23:19 182 5 gusting 14 -3.3
2015-Jan-27 23:09 104 5 gusting 11 -3.3
2015-Jan-27 22:59 201 6 gusting 17 -3.3
2015-Jan-27 22:49 212 7 gusting 16 -2.8
2015-Jan-27 22:39 217 7 gusting 17 -3.3
2015-Jan-27 22:29 199 9 gusting 17 -2.8
2015-Jan-27 22:19 195 10 gusting 19 -3.3
2015-Jan-27 22:09 115 7 gusting 18 -3.3
2015-Jan-27 21:59 223 8 gusting 18 -3.3
2015-Jan-27 21:49 201 7 gusting 17 -3.3
2015-Jan-27 21:39 212 9 gusting 18 -3.3
2015-Jan-27 21:29 188 6 gusting 14 -3.3
2015-Jan-27 21:19 199 7 gusting 15 -3.3
2015-Jan-27 21:09 216 10 gusting 18 -3.3
2015-Jan-27 20:59 211 7 gusting 18 -3.3
2015-Jan-27 20:49 198 8 gusting 19 -2.8
2015-Jan-27 20:39 210 6 gusting 20 -3.3
2015-Jan-27 20:29 208 8 gusting 18 -3.3
2015-Jan-27 20:19 223 9 gusting 19 -3.3
2015-Jan-27 20:09 158 7 gusting 20 -3.3
2015-Jan-27 19:59 207 9 gusting 20 -3.3
2015-Jan-27 19:49 197 10 gusting 19 -3.3
2015-Jan-27 19:39 210 8 gusting 19 -3.3
2015-Jan-27 19:29 193 9 gusting 19 -3.3
2015-Jan-27 19:19 191 9 gusting 20 -3.3
2015-Jan-27 19:09 228 6 gusting 19 -3.3
2015-Jan-27 18:59 217 7 gusting 19 -3.3
2015-Jan-27 18:49 196 7 gusting 18 -3.3
2015-Jan-27 18:39 214 7 gusting 19 -3.3
2015-Jan-27 18:29 223 8 gusting 21 -3.3
2015-Jan-27 18:19 207 9 gusting 19 -3.3
2015-Jan-27 18:09 225 8 gusting 18 -3.3
2015-Jan-27 17:59 215 9 gusting 18 -3.3
2015-Jan-27 17:49 182 8 gusting 19 -3.3
2015-Jan-27 17:39 156 8 gusting 22 -3.3
2015-Jan-27 17:29 202 9 gusting 22 -3.3
2015-Jan-27 17:19 169 9 gusting 19 -3.3
2015-Jan-27 17:09 212 8 gusting 19 -3.3
2015-Jan-27 16:59 214 10 gusting 20 -3.3
2015-Jan-27 16:49 212 9 gusting 21 -3.3
2015-Jan-27 16:39 208 10 gusting 19 -2.8
2015-Jan-27 16:29 206 7 gusting 19 -3.3
2015-Jan-27 16:19 207 7 gusting 18 -3.3
2015-Jan-27 16:09 188 8 gusting 18 -3.3